Change the Weather History Date:

Monday, December 22, 2014

  Actual Average Record
Temperature  
Mean Temperature 41 °F 34 °F  
Max Temperature 53 °F 43 °F 71 °F (1967)
Min Temperature 28 °F 25 °F -17 °F (1989)
Degree Days  
Heating Degree Days 24 31  
Month to date heating degree days 588 630  
Since 1 July heating degree days 1716 1541  
Cooling Degree Days 0 0  
Month to date cooling degree days 0 0  
Year to date cooling degree days 1070 1155  
Moisture  
Dew Point 37 °F    
Average Humidity 76    
Maximum Humidity 92    
Minimum Humidity 59    
Precipitation  
Precipitation 0.13 in 0.13 in 2.32 in (1970)
Month to date precipitation 2.60 2.96  
Year to date precipitation 45.25 44.57  
Sea Level Pressure  
Sea Level Pressure 29.88 in    
Wind  
Wind Speed 5 mph (ESE)    
Max Wind Speed 13 mph    
Max Gust Speed 16 mph    
Visibility 9 miles    
Events Rain , Thunderstorm    
T = Trace of Precipitation, MM = Missing Value Source: NWS Daily Summary

Daily Weather History Graph

Daily Weather History Graph

Search for Another Location

Airport or City:

Trip Planner

Search our weather history database for the weather conditions in past years. The results will help you decide how hot, cold, wet, or windy it might be!

Date:

Astronomy

Dec. 22, 2014 Rise Set
Actual Time 7:53 AM EST 5:23 PM EST
Civil Twilight 7:23 AM EST 5:53 PM EST
Nautical Twilight 6:50 AM EST 6:26 PM EST
Astronomical Twilight 6:18 AM EST 6:58 PM EST
Moon 8:06 AM EST (12/22) 6:30 PM EST (12/22)
Length of Visible Light 10h 29m
Length of Day
9h 30m
New Moon, 1% of the Moon is Illuminated
Dec 22
New Moon
Dec 28
First Quarter
Jan 4
Full
Jan 13
Last Quarter
Jan 20
New

Hourly Weather History & Observations

Time (EST) Temp. Windchill Dew Point Humidity Pressure Visibility Wind Dir Wind Speed Gust Speed Precip Events Conditions
12:53 AM 30.0 °F 25.2 °F 25.0 °F 82% 30.07 in 8.0 mi ENE 4.6 mph - N/A   Overcast
1:53 AM 30.9 °F 26.2 °F 26.1 °F 82% 30.04 in 9.0 mi ENE 4.6 mph - N/A   Overcast
2:53 AM 33.1 °F 30.0 °F 27.0 °F 78% 30.05 in 9.0 mi ENE 3.5 mph - N/A   Overcast
3:53 AM 33.1 °F - 28.0 °F 82% 30.03 in 9.0 mi Calm Calm - N/A   Overcast
4:53 AM 34.0 °F 31.0 °F 28.9 °F 82% 30.02 in 9.0 mi East 3.5 mph - N/A   Overcast
5:53 AM 33.1 °F 30.0 °F 28.0 °F 82% 30.01 in 10.0 mi East 3.5 mph - N/A   Scattered Clouds
6:53 AM 30.0 °F - 27.0 °F 88% 30.02 in 9.0 mi Calm Calm - N/A   Mostly Cloudy
7:53 AM 30.9 °F - 28.0 °F 89% 30.01 in 9.0 mi Calm Calm - N/A   Mostly Cloudy
8:53 AM 30.9 °F - 28.0 °F 89% 30.00 in 8.0 mi Calm Calm - N/A   Scattered Clouds
9:53 AM 39.0 °F 36.8 °F 32.0 °F 76% 30.00 in 10.0 mi ESE 3.5 mph - N/A   Mostly Cloudy
10:53 AM 45.0 °F 41.8 °F 35.1 °F 68% 29.97 in 10.0 mi SE 5.8 mph - N/A   Scattered Clouds
11:53 AM 48.9 °F - 37.9 °F 66% 29.95 in 10.0 mi South 6.9 mph - N/A   Overcast
12:53 PM 51.1 °F - 39.0 °F 63% 29.89 in 10.0 mi ESE 5.8 mph - N/A   Overcast
1:53 PM 52.0 °F - 39.9 °F 63% 29.85 in 10.0 mi SE 4.6 mph - N/A   Partly Cloudy
2:53 PM 52.0 °F - 39.9 °F 63% 29.81 in 10.0 mi East 9.2 mph - N/A   Partly Cloudy
3:53 PM 53.1 °F - 39.9 °F 61% 29.79 in 10.0 mi ESE 9.2 mph - N/A   Mostly Cloudy
4:53 PM 51.1 °F - 41.0 °F 68% 29.80 in 10.0 mi SE 3.5 mph - N/A   Mostly Cloudy
5:53 PM 50.0 °F - 39.9 °F 68% 29.78 in 10.0 mi ESE 6.9 mph - N/A   Mostly Cloudy
6:53 PM 50.0 °F - 39.9 °F 68% 29.77 in 10.0 mi ESE 4.6 mph - N/A   Overcast
7:53 PM 51.1 °F - 41.0 °F 68% 29.76 in 10.0 mi SE 8.1 mph - N/A   Overcast
8:53 PM 52.0 °F - 43.0 °F 71% 29.74 in 10.0 mi SE 9.2 mph - N/A   Overcast
9:53 PM 52.0 °F - 43.0 °F 71% 29.72 in 10.0 mi SSE 10.4 mph - N/A   Overcast
10:50 PM 53.6 °F - 44.6 °F 72% 29.71 in 10.0 mi SSE 8.1 mph - 0.00 in   Overcast
10:53 PM 53.1 °F - 44.1 °F 71% 29.71 in 10.0 mi SSE 8.1 mph - 0.00 in   Overcast
11:41 PM 51.1 °F - 46.0 °F 83% 29.71 in 5.0 mi South 6.9 mph - 0.06 in Rain , Thunderstorm Light Rain
11:47 PM 51.8 °F - 46.4 °F 82% 29.71 in 2.5 mi SSE 8.1 mph - 0.11 in Rain , Thunderstorm Heavy Rain
11:53 PM 51.1 °F - 46.9 °F 86% 29.71 in 3.0 mi SSE 6.9 mph - 0.13 in Rain Rain